Stündliche Wetter Julianowo

Heute, 5 März, Freitag

Zeit Temperatur Niederschläge Wind Luftdruck Luftfeuchtigkeit
00:00 -3°C° 0 mm 2 m/S 753 mmHg 86%
01:00 -3°C° 0 mm 2 m/S 753 mmHg 87%
02:00 -3°C° 0 mm 2 m/S 753 mmHg 86%
03:00 -3°C° 0 mm 2 m/S 753 mmHg 86%
04:00 -3°C° 0 mm 2 m/S 753 mmHg 85%
05:00 -3°C° 0 mm 2 m/S 754 mmHg 84%
06:00 -3°C° 0 mm 2 m/S 754 mmHg 82%
07:00 -2°C° 0 mm 2 m/S 755 mmHg 81%
08:00 -1°C° 0 mm 3 m/S 755 mmHg 72%
09:00 0°C° 0 mm 3 m/S 755 mmHg 63%
10:00 0°C° 0 mm 4 m/S 756 mmHg 54%
11:00 +1°C° 0.1 mm 4 m/S 756 mmHg 50%
12:00 +1°C° 0.1 mm 4 m/S 756 mmHg 45%
13:00 +1°C° 0 mm 5 m/S 757 mmHg 41%
14:00 +1°C° 0 mm 4 m/S 757 mmHg 44%
15:00 +1°C° 0 mm 4 m/S 757 mmHg 47%
16:00 +1°C° 0 mm 3 m/S 757 mmHg 51%
17:00 0°C° 0 mm 3 m/S 758 mmHg 59%
18:00 -1°C° 0 mm 3 m/S 758 mmHg 68%
19:00 -2°C° 0 mm 3 m/S 758 mmHg 76%
20:00 -4°C° 0 mm 3 m/S 759 mmHg 78%
21:00 -4°C° 0 mm 3 m/S 759 mmHg 79%
22:00 -4°C° 0 mm 3 m/S 759 mmHg 81%
23:00 -4°C° 0 mm 3 m/S 760 mmHg 80%

Morgen, 6 März, Samstag

Zeit Temperatur Niederschläge Wind Luftdruck Luftfeuchtigkeit
00:00 -4°C° 0 mm 3 m/S 760 mmHg 79%
01:00 -4°C° 0 mm 3 m/S 761 mmHg 78%
02:00 -4°C° 0 mm 3 m/S 760 mmHg 77%
03:00 -3°C° 0 mm 2 m/S 760 mmHg 77%
04:00 -3°C° 0 mm 2 m/S 760 mmHg 76%
05:00 -3°C° 0 mm 2 m/S 761 mmHg 75%
06:00 -3°C° 0 mm 2 m/S 761 mmHg 74%
07:00 -3°C° 0 mm 2 m/S 761 mmHg 74%
08:00 -2°C° 0 mm 2 m/S 761 mmHg 68%
09:00 0°C° 0 mm 3 m/S 761 mmHg 62%
10:00 0°C° 0 mm 4 m/S 761 mmHg 56%
11:00 +1°C° 0 mm 4 m/S 761 mmHg 52%
12:00 +1°C° 0 mm 5 m/S 760 mmHg 49%
13:00 +2°C° 0 mm 5 m/S 760 mmHg 45%
14:00 +2°C° 0 mm 5 m/S 759 mmHg 47%
15:00 +2°C° 0 mm 5 m/S 759 mmHg 48%
16:00 +2°C° 0 mm 5 m/S 758 mmHg 49%
17:00 +1°C° 0 mm 5 m/S 758 mmHg 59%
18:00 0°C° 0 mm 5 m/S 757 mmHg 68%
19:00 -2°C° 0 mm 6 m/S 757 mmHg 78%
20:00 -2°C° 0 mm 6 m/S 756 mmHg 81%
21:00 -2°C° 0 mm 6 m/S 756 mmHg 84%
22:00 -2°C° 0 mm 7 m/S 755 mmHg 86%
23:00 -2°C° 0 mm 7 m/S 755 mmHg 87%

übermorgen, 7 März, Sonntag

Zeit Temperatur Niederschläge Wind Luftdruck Luftfeuchtigkeit
00:00 -2°C° 0 mm 7 m/S 754 mmHg 88%
01:00 -2°C° 0 mm 8 m/S 754 mmHg 89%
02:00 -2°C° 0.1 mm 8 m/S 753 mmHg 90%
03:00 -2°C° 0.1 mm 8 m/S 753 mmHg 92%
04:00 -2°C° 0.1 mm 8 m/S 752 mmHg 93%
05:00 -2°C° 0.2 mm 8 m/S 752 mmHg 94%
06:00 -2°C° 0.2 mm 7 m/S 752 mmHg 95%
07:00 -2°C° 0.2 mm 7 m/S 752 mmHg 96%
08:00 -2°C° 0.1 mm 7 m/S 752 mmHg 96%
09:00 -2°C° 0.1 mm 7 m/S 752 mmHg 95%
10:00 -1°C° 0.1 mm 7 m/S 752 mmHg 95%
11:00 -1°C° 0.4 mm 7 m/S 752 mmHg 95%
12:00 -2°C° 0.4 mm 7 m/S 752 mmHg 95%
13:00 -2°C° 0.4 mm 7 m/S 752 mmHg 95%
14:00 -2°C° 0.8 mm 6 m/S 751 mmHg 94%
15:00 -1°C° 0.8 mm 5 m/S 751 mmHg 93%
16:00 -2°C° 0.8 mm 4 m/S 751 mmHg 91%
17:00 -1°C° 0.3 mm 3 m/S 751 mmHg 90%
18:00 -2°C° 0.3 mm 3 m/S 752 mmHg 88%
19:00 -3°C° 0.3 mm 2 m/S 752 mmHg 86%
20:00 -4°C° 0 mm 3 m/S 752 mmHg 86%
21:00 -4°C° 0 mm 3 m/S 752 mmHg 87%
22:00 -4°C° 0 mm 3 m/S 752 mmHg 87%
23:00 -5°C° 0 mm 3 m/S 752 mmHg 87%

8 März, Montag

Zeit Temperatur Niederschläge Wind Luftdruck Luftfeuchtigkeit
00:00 -5°C° 0 mm 3 m/S 752 mmHg 87%
01:00 -4°C° 0 mm 2 m/S 753 mmHg 87%
02:00 -4°C° 0 mm 2 m/S 753 mmHg 86%
03:00 -4°C° 0 mm 2 m/S 753 mmHg 85%
04:00 -4°C° 0 mm 2 m/S 753 mmHg 84%
05:00 -4°C° 0 mm 2 m/S 753 mmHg 83%
06:00 -4°C° 0 mm 2 m/S 753 mmHg 81%
07:00 -4°C° 0 mm 3 m/S 754 mmHg 80%
08:00 -2°C° 0.1 mm 3 m/S 754 mmHg 76%
09:00 -2°C° 0.1 mm 4 m/S 754 mmHg 72%
10:00 -1°C° 0.1 mm 5 m/S 755 mmHg 67%
11:00 -1°C° 0.1 mm 5 m/S 755 mmHg 66%
12:00 -1°C° 0.1 mm 5 m/S 755 mmHg 64%
13:00 -1°C° 0.1 mm 5 m/S 756 mmHg 63%
14:00 -1°C° 0 mm 5 m/S 756 mmHg 64%
15:00 -2°C° 0 mm 5 m/S 756 mmHg 66%
16:00 -2°C° 0 mm 5 m/S 756 mmHg 68%
17:00 -3°C° 0 mm 4 m/S 756 mmHg 73%
18:00 -4°C° 0 mm 3 m/S 757 mmHg 78%
19:00 -4°C° 0 mm 2 m/S 757 mmHg 83%
20:00 -4°C° 0 mm 2 m/S 757 mmHg 83%
21:00 -2°C° 0 mm 1 m/S 758 mmHg 83%
22:00 -3°C° 0 mm 1 m/S 758 mmHg 83%
23:00 -3°C° 0 mm 1 m/S 758 mmHg 82%

9 März, Dienstag

Zeit Temperatur Niederschläge Wind Luftdruck Luftfeuchtigkeit
00:00 -4°C° 0 mm 0 m/S 758 mmHg 82%
01:00 -4°C° 0 mm 0 m/S 758 mmHg 81%
02:00 -4°C° 0 mm 0 m/S 758 mmHg 80%
03:00 -3°C° 0 mm 0 m/S 758 mmHg 80%
04:00 -2°C° 0 mm 1 m/S 758 mmHg 79%
05:00 -2°C° 0 mm 1 m/S 758 mmHg 78%
06:00 -2°C° 0 mm 1 m/S 758 mmHg 78%
07:00 -2°C° 0 mm 1 m/S 758 mmHg 78%
08:00 -3°C° 0 mm 2 m/S 758 mmHg 71%
09:00 -2°C° 0 mm 2 m/S 759 mmHg 65%
10:00 -2°C° 0 mm 2 m/S 759 mmHg 59%
11:00 -1°C° 0 mm 3 m/S 758 mmHg 56%
12:00 0°C° 0 mm 3 m/S 758 mmHg 53%
13:00 +1°C° 0 mm 3 m/S 758 mmHg 50%
14:00 +1°C° 0 mm 3 m/S 758 mmHg 52%
15:00 +1°C° 0 mm 3 m/S 757 mmHg 54%
16:00 +1°C° 0 mm 3 m/S 756 mmHg 57%
17:00 0°C° 0 mm 3 m/S 756 mmHg 62%
18:00 -1°C° 0 mm 3 m/S 756 mmHg 67%
19:00 -4°C° 0 mm 3 m/S 756 mmHg 72%
20:00 -3°C° 0 mm 4 m/S 756 mmHg 71%
21:00 -3°C° 0 mm 4 m/S 756 mmHg 70%
22:00 -3°C° 0 mm 4 m/S 755 mmHg 68%
23:00 -3°C° 0 mm 4 m/S 755 mmHg 73%

10 März, Mittwoch

Zeit Temperatur Niederschläge Wind Luftdruck Luftfeuchtigkeit
00:00 -3°C° 0 mm 4 m/S 755 mmHg 77%
01:00 -3°C° 0 mm 4 m/S 754 mmHg 82%
02:00 -2°C° 0.1 mm 4 m/S 754 mmHg 87%
03:00 -2°C° 0.1 mm 4 m/S 753 mmHg 92%
04:00 -1°C° 0.1 mm 4 m/S 753 mmHg 97%
05:00 -1°C° 0.1 mm 4 m/S 753 mmHg 97%
06:00 -1°C° 0.1 mm 5 m/S 752 mmHg 97%
07:00 0°C° 0.1 mm 5 m/S 752 mmHg 97%
08:00 0°C° 0.1 mm 4 m/S 752 mmHg 97%
09:00 0°C° 0.1 mm 4 m/S 752 mmHg 96%
10:00 0°C° 0.1 mm 4 m/S 752 mmHg 96%
11:00 +1°C° 0 mm 5 m/S 751 mmHg 93%
12:00 +2°C° 0 mm 5 m/S 751 mmHg 89%
13:00 +2°C° 0 mm 5 m/S 750 mmHg 85%
14:00 +2°C° 0 mm 5 m/S 749 mmHg 83%
15:00 +2°C° 0 mm 5 m/S 748 mmHg 81%
16:00 +3°C° 0 mm 5 m/S 748 mmHg 79%
17:00 +2°C° 0 mm 6 m/S 747 mmHg 79%
18:00 +2°C° 0 mm 6 m/S 746 mmHg 79%
19:00 +2°C° 0 mm 6 m/S 745 mmHg 79%
20:00 +2°C° 0 mm 7 m/S 744 mmHg 82%
21:00 +2°C° 0 mm 7 m/S 744 mmHg 84%
22:00 +2°C° 0 mm 7 m/S 743 mmHg 87%
23:00 +2°C° 0.2 mm 7 m/S 742 mmHg 89%
Mehr zeigen

Wir brauchen deine Erlaubnis

Meteoprog und unser Service Anbieter werden persönliche Daten aufbewahren, so wie Cookies, Geräte Bezeichnung oder ähnliche Technologien von deinem Gerät und Prozess, so wie Persönliche Daten Inhalte und Werbungen, genauso wie social Media und den Verkehr zu analysieren.

  • Aufbewahrung und/oder Zugang zu deiner Geräte Informationen.

    Cookies, Geräte Bezeichnung oder andere Informationen, können aufbewahrt oder Zugang zu deinem Gerät erhalten, für den Grund, der oben angegeben wird.

  • Personalisierte Werbung und Inhalte, Messungen, Einblick in das Publikum und Produkt Entwicklung.

    Werbungen und Inhalte können personalisiert werden, basierend auf ein Profil. Mehr Daten können besser personalisierte Werbungen und Inhalte hinzufügen. Werbung und Inhalte können gezeigt und gemessen werden. Einblicke über das Publikum, welche die Werbung gesehen haben und den Inhalt, können abgeleitet werden. So wie Daten können genutzt werden, um es zu verbessern oder die Benutzer Erfahrung zu verbessern das System und die Software.

Wenn du “Ich stimme zu” klickst, erlaubst du uns, die Cookies zu benutzen die Geräte Bezeichnung, den Web oder ähnliche Technologien zu benutzen. Deine Settings, können in deinem Gerät bei deinem Browser geändert werden.

Für den bestimmten Zweck, berechtigten Interessen beruhen darauf, mehr als auf den Inhalt. Du kannst mehr darüber in unseren Privaten und Cookie Politik lesen.